AirNav   ProFlight Series 2 Aviation Headset
 
 721 users online  

0IL4 Advocate Good Samaritan Hospital Heliport
Downers Grove, Illinois, USA

GOING TO DOWNERS GROVE?


FAA INFORMATION EFFECTIVE 16 JULY 2020

Location

FAA Identifier: 0IL4
Lat/Long: 41-49-08.0000N 088-00-28.0000W
41-49.133333N 088-00.466667W
41.8188889,-88.0077778
(estimated)
Elevation: 772 ft. / 235 m (estimated)
Variation: 02W (1995)
From city: 2 miles N of DOWNERS GROVE, IL
Time zone: UTC -5 (UTC -6 during Standard Time)
Zip code: 60515

Heliport Operations

Heliport use: Private use. Permission required prior to landing
Activation date: 02/1998
Control tower: no
ARTCC: CHICAGO CENTER
FSS: KANKAKEE FLIGHT SERVICE STATION
Attendance: CONTINUOUS
Wind indicator: lighted
Segmented circle: no
Lights: SS-SR
Beacon: white-green-yellow (heliport)
24 HRS.

Heliport Communications

WX ASOS at ORD (10 nm NE): PHONE 773-462-0118
WX AWOS-3 at 06C (11 nm N): 128.275 ((847) 895-2887)
WX ASOS at MDW (12 nm E): PHONE 773-884-4424
WX ASOS at DPA (12 nm NW): PHONE 630-587-3668
WX AWOS-3 at LOT (13 nm S): 118.525 (815-588-4802)
WX ASOS at PWK (18 nm N): PHONE 847-465-0291
WX AWOS-3 at JOT (20 nm SW): 119.975 (815-730-9560)

Nearby radio navigation aids

VOR radial/distance  VOR name  Freq  Var
DPAr104/15.9DUPAGE VOR/DME108.4002E
JOTr038/21.5JOLIET VOR/DME112.3002E
OBKr188/24.3NORTHBROOK VOR/DME113.0002W
CGTr311/26.9CHICAGO HEIGHTS VORTAC114.2002E
EONr342/34.4PEOTONE VORTAC113.2002E

Heliport Services

Runway Information

Helipad H1

Dimensions: 40 x 40 ft. / 12 x 12 m
Surface: concrete, in good condition
Runway edge lights: PERI
Latitude: 41-49.133333N
Longitude: 088-00.466667W
Elevation: 772.0 ft.
Traffic pattern: leftleft

Heliport Ownership and Management from official FAA records

Ownership: Privately-owned
Owner: ADVOCATE HEALTH AND HOSPITALS CORP
3815 HIGHLAND AVENUE
DOWNERS GROVE, IL 60515
Phone 630-275-5900
Manager: JAMES LYONS
ADVOCATE GOOD SAMARITAN HOSPITAL, 3815 HIGHLAND AVENUE
DOWNERS GROVE, IL 60515
Phone 630-275-1053

Additional Remarks

FOR CD CTC CHICAGO APCH AT 847-289-0926.

Instrument Procedures

There are no published instrument procedures at 0IL4.

Some nearby airports with instrument procedures:

1C5 - Bolingbrook's Clow International Airport (9 nm SW)
KORD - Chicago O'Hare International Airport (10 nm NE)
KMDW - Chicago Midway International Airport (12 nm E)
KDPA - DuPage Airport (12 nm NW)
KLOT - Lewis University Airport (13 nm S)
KPWK - Chicago Executive Airport (18 nm N)
 
Loc | Ops | Rwys | IFR | FBO | Links
Com | Nav | Svcs | Stats | Notes
Area around 0IL4 (Advocate Good Samaritan Hospital Heliport)
 
Road maps at: MapQuest Bing Google
 
Aerial photo
No photo
 
Sectional chart

 
Airport distance calculator
Flying to Advocate Good Samaritan Hospital Heliport? Find the distance to fly.

From to 0IL4

Sunrise and sunset
Times for 04-Aug-2020
 Local
(UTC-5)
 Zulu
(UTC)
Morning civil twilight05:2010:20
Sunrise05:5110:51
Sunset20:0501:05
Evening civil twilight20:3601:36

Current date and time
Zulu (UTC)  05-Aug-2020 04:06:05
Local (UTC-5)  04-Aug-2020 23:06:05
 
METAR
KORD 
10nm N 
050351Z 00000KT 10SM CLR 18/09 A3008 RMK AO2 SLPNO T01830094 $
K06C 
11nm N 
050355Z AUTO 00000KT 10SM CLR 13/10 A3009 RMK AO2 T01320097
KMDW 
12nm E 
050353Z 00000KT 10SM FEW055 18/11 A3008 RMK AO2 SLP182 T01830106 $
KDPA 
12nm NW 
050352Z 00000KT 10SM CLR 13/10 A3009 RMK AO2 SLP189 T01330100
KLOT 
13nm S 
050335Z AUTO 00000KT 10SM CLR 16/09 A3010 RMK AO2 T01620090
KPWK 
19nm N 
050352Z AUTO 00000KT 10SM CLR 16/11 A3009 RMK AO2 SLP188 T01560106
KJOT 
19nm S 
050355Z AUTO 00000KT 10SM CLR 14/09 A3010 RMK AO2 T01380094
TAF
KORD 
10nm N 
042101Z 0421/0524 01012G18KT P6SM SCT050 FM050100 01009KT P6SM FEW050 FM050300 VRB03KT P6SM FEW250 FM051400 27005KT P6SM SCT050
KMDW 
12nm E 
042101Z 0421/0524 04012G18KT P6SM SCT050 FM050100 04009KT P6SM FEW050 FM050300 24003KT P6SM FEW250 FM051400 27005KT P6SM SCT050
KDPA 
12nm NW 
042101Z 0421/0518 36012G20KT P6SM SCT050 FM050100 01009KT P6SM FEW050 FM050300 VRB03KT P6SM FEW250 FM051400 27005KT P6SM SCT050
NOTAMs
Click for the latest NOTAMs
NOTAMs are issued by the DoD/FAA and will open in a separate window not controlled by AirNav.

 

 
 

Would you like to see your business listed on this page?

 If your business provides an interesting product or service to pilots, flight crews, aircraft, or users of the Advocate Good Samaritan Hospital Heliport, you should consider listing it here.  To start the listing process, click on the button below
 
Add a business
 

Other Pages about Advocate Good Samaritan Hospital Heliport

Update a link
 
Copyright © AirNav, LLC. All rights reserved. Privacy Policy  Contact